Flag for Germany Weather past 2 weeks in Deggendorf, Bavaria, Germany

Now
43 °F

Fog.


Feels Like: 43 °F
Forecast: 35 / 56 °F
Wind: 2 mph from Southeast

Location: Straubing

Current Time: Oct 26, 2014 at 2:32:02 AM

Latest Report: Oct 26, 2014 at 2:00 AM


Visibility: 2 mi

Pressure: 30.33 "Hg

Humidity: 96%

Dew point: 42 °F

Location of DeggendorfLocation

Historic Weather in Deggendorf — Graph

°F

Deggendorf temperature yesterday

Maximum temperature yesterday: 45 °F (at 5:00 PM)
Minimum temperature yesterday: 36 °F (at 3:00 AM)
Average temperature yesterday: 42 °F

Past Weeks' High & Low Weather Summary

 TemperatureHumidityPressure
High66 °F (Oct 13, 2:00 PM)100% (Oct 12, 12:00 AM)30.32 "Hg (Oct 12, 12:00 AM)
Low36 °F (Oct 25, 3:00 AM)71% (Oct 13, 3:00 PM)29.62 "Hg (Oct 21, 9:00 PM)
Average53 °F91%30.00 "Hg
* Reported Oct 11 1:00 AM — Oct 26 1:00 AM, Deggendorf, Weather by CustomWeather, © 2014

Note: Actual official high and low records may vary slightly from our data, if they occured in-between our weather recording intervals... More about our weather records

Advertising

Deggendorf weather history for previous 24 hours

 ConditionsComfort  
Time TempWeatherWind HumidityBarometerVisibility
1:00 AM
Oct 26
44 °FFog.2 mph96%30.32 "Hg2 mi
12:00 AM44 °FOvercast.2 mph97%30.32 "Hg2 mi
10:00 PM
Oct 25
44 °FLight rain. Overcast.No wind96%30.29 "Hg2 mi
9:00 PM43 °FLight rain. Overcast.1 mph98%30.28 "Hg1 mi
8:00 PM44 °FRain. Overcast.1 mph97%30.27 "Hg1 mi
7:00 PM44 °FRain. Overcast.No wind93%30.26 "Hg2 mi
6:00 PM45 °FFog.No wind86%30.24 "Hg4 mi
5:00 PM45 °FFog.1 mph86%30.23 "Hg4 mi
4:00 PM45 °FFog.2 mph85%30.23 "Hg4 mi
3:00 PM45 °FFog.3 mph86%30.22 "Hg4 mi
2:00 PM45 °FFog.3 mph87%30.22 "Hg4 mi
1:00 PM44 °FFog.5 mph90%30.23 "Hg4 mi
12:00 PM43 °FFog.5 mph93%30.24 "Hg4 mi
11:00 AM42 °FFog.5 mph96%30.22 "Hg3 mi
10:00 AM42 °FFog.2 mph98%30.22 "Hg3 mi
9:00 AM41 °FLow clouds.1 mph100%30.22 "Hg2 mi
8:00 AM38 °FLow clouds.1 mph100%30.21 "Hg0 mi
7:00 AM37 °FLow clouds.1 mph100%30.20 "HgN/A
6:00 AM38 °FLow clouds.2 mph100%30.20 "HgN/A
4:00 AM36 °FPassing clouds.2 mph100%30.20 "HgN/A
3:00 AM36 °FLow clouds.2 mph100%30.21 "HgN/A
2:00 AM39 °FLow clouds.1 mph100%30.21 "HgN/A
Weather by CustomWeather, © 2014

See weather overviewHow to use our weather pages